{"data":{"norad_id":61969,"epoch":"2026-09-21T09:35:59.704512Z","epoch_age_seconds":107837,"freshness":"FRESH","line1":"1 61969U 24210L   26264.39999658  .00010030  00000+0  37329-3 0  9998","line2":"2 61969  43.0053 147.4379 0001215 263.2201  96.8512 15.27600628104797","mean_motion":15.27600628,"eccentricity":0.0001215,"inclination_deg":43.0053,"raan_deg":147.4379,"arg_perigee_deg":263.2201,"mean_anomaly_deg":96.8512,"bstar":0.00037329,"rev_number":10479,"period_min":94.265475779838,"perigee_km":482.15370247585,"apogee_km":483.82095568782,"semimajor_km":6861.1243290818,"source":"CELESTRAK","updated_at":"2026-09-22T09:00:49.478929Z"}}